(148643) = 2001 ST45

Discovered at Socorro on 2001-09-16 by LINEAR.

Orbit

Orbit type: Main Belt

Note: WebGL enabled browser required.

epoch2023-09-13.0
epoch JD2460200.5
perihelion date2020-01-09.98701
perihelion JD2458858.48701
argument of perihelion (°)181.65582
ascending node (°)107.78645
inclination (°)4.63746
eccentricity0.2540864
perihelion distance (AU)1.8056240
Tisserand w.r.t. Jupiter3.5
ΔV w.r.t. Earth (km/sec)8.5
semimajor axis (AU)2.4206880
mean anomaly (°)351.19824
mean daily motion (°/day)0.26169510
aphelion distance (AU)3.036
period (years)3.77
P-vector [x]0.33276682
P-vector [y]-0.86426202
P-vector [z]-0.37724978
Q-vector [x]0.93986137
Q-vector [y]0.33662019
Q-vector [z]0.05785725
absolute magnitude16.68
phase slope0.15
uncertainty0
referenceMPEC 2024-A48
observations used648
oppositions16
arc length (days)8050
first opposition used2001
last opposition used2023
residual rms (arc-secs)0.75
perturbers coarse indicatorM-v
perturbers precise indicator003Ek
first observation date used2001-08-27.0
last observation date used2023-09-11.0
computer nameMPCLINUX
JD of orbit computation2456731.559026
perihelion JD uncertainty (days)3.1467E-05
argument of perihelion uncertainty (°)5.5234E-05
ascending node uncertainty (°)5.4317E-05
inclination uncertainty (°)4.8902E-06
eccentricity uncertainty 4.2520E-08
perihelion distance uncertainty (AU)1.0102E-07
Minimum Orbit Intersection Distances (in AU)
for orbit epoch: 2460200.5, reference: E2024-A48
Mercury1.3543
Venus1.0783
Earth0.7887
Mars0.37691
Jupiter2.14473
Saturn6.03562
Uranus15.5952
Neptune27.062

Observations

655 total observations over interval: 2001 08 27.41554 – 2023 09 11.267346
These data are available for download (format description).

Date (UT) J2000 RA J2000 Dec Magn Location Ref
2001 08 27.41554 01 19 52.85 +00 26 54.9 19.4 R 699 – Lowell Observatory-LONEOS MPS 38138
2001 08 27.43444 01 19 52.58 +00 26 50.0   699 – Lowell Observatory-LONEOS MPS 38138
2001 08 27.45340 01 19 52.32 +00 26 44.7   699 – Lowell Observatory-LONEOS MPS 38138
2001 08 27.47245 01 19 52.07 +00 26 39.2   699 – Lowell Observatory-LONEOS MPS 38138
2001 09 16.39734 01 09 53.54 -01 31 42.5 19.0   704 – Lincoln Laboratory ETS, New Mexico MPS 36542
2001 09 16.41836 01 09 52.54 -01 31 50.7 19.1   704 – Lincoln Laboratory ETS, New Mexico MPS 36542
2001 09 16.45385 01 09 50.77 -01 32 05.4 19.2   704 – Lincoln Laboratory ETS, New Mexico MPS 36542
2001 09 18.36835 01 08 19.27 -01 45 04.4 18.8 R 699 – Lowell Observatory-LONEOS MPS 38138
2001 09 18.38722 01 08 18.36 -01 45 12.4   699 – Lowell Observatory-LONEOS MPS 38138
2001 09 18.40608 01 08 17.41 -01 45 19.3   699 – Lowell Observatory-LONEOS MPS 38138
2001 09 18.42504 01 08 16.38 -01 45 26.3   699 – Lowell Observatory-LONEOS MPS 38138
2001 09 19.33093 01 07 31.41 -01 51 37.8 18.8   704 – Lincoln Laboratory ETS, New Mexico MPS 36542
2001 09 19.34525 01 07 30.79 -01 51 43.0 19.3   704 – Lincoln Laboratory ETS, New Mexico MPS 36542
2001 09 19.35951 01 07 30.04 -01 51 49.1 19.1   704 – Lincoln Laboratory ETS, New Mexico MPS 36542
2001 09 19.38783 01 07 28.47 -01 52 00.3 19.5   704 – Lincoln Laboratory ETS, New Mexico MPS 36542
2001 09 21.32124 01 05 49.65 -02 05 09.8 18.9   704 – Lincoln Laboratory ETS, New Mexico MPS 36542
2001 09 21.33588 01 05 48.82 -02 05 15.5 19.5   704 – Lincoln Laboratory ETS, New Mexico MPS 36542
2001 09 21.35014 01 05 48.04 -02 05 21.7 19.2   704 – Lincoln Laboratory ETS, New Mexico MPS 36542
2001 09 21.36429 01 05 47.27 -02 05 27.2 18.9   704 – Lincoln Laboratory ETS, New Mexico MPS 36542
2001 09 21.37882 01 05 46.47 -02 05 33.2 18.9   704 – Lincoln Laboratory ETS, New Mexico MPS 36542
2001 09 25.36954 01 02 11.18 -02 32 21.2 19.1   644 – Palomar Mountain/NEAT MPS 49455
2001 09 25.39079 01 02 09.96 -02 32 29.4 19.0   644 – Palomar Mountain/NEAT MPS 49455
2001 09 25.41152 01 02 08.74 -02 32 37.6 19.3   644 – Palomar Mountain/NEAT MPS 49455
2001 10 11.26175 00 47 08.09 -04 03 47.7 19.3   704 – Lincoln Laboratory ETS, New Mexico MPS 38138
2001 10 11.27819 00 47 07.10 -04 03 53.1 19.2   704 – Lincoln Laboratory ETS, New Mexico MPS 38138
2001 10 11.29440 00 47 06.19 -04 03 57.6 20.1   704 – Lincoln Laboratory ETS, New Mexico MPS 38138
2001 10 11.31063 00 47 05.23 -04 04 01.2 19.3   704 – Lincoln Laboratory ETS, New Mexico MPS 38138
2001 10 11.32706 00 47 04.32 -04 04 05.8 19.3   704 – Lincoln Laboratory ETS, New Mexico MPS 38138
2001 10 24.23107 00 36 39.64 -04 45 41.4 19.5   644 – Palomar Mountain/NEAT MPS 40484
2001 10 24.25225 00 36 38.74 -04 45 43.8 19.4   644 – Palomar Mountain/NEAT MPS 40484
2001 10 24.27350 00 36 37.84 -04 45 46.2 19.5   644 – Palomar Mountain/NEAT MPS 40484
2002 12 06.346020 07 33 54.737 +20 49 37.65 21.50 V 645 – Apache Point-Sloan Digital Sky Survey MPS 106170
2002 12 06.349492 07 33 54.602 +20 49 38.01 22.55   645 – Apache Point-Sloan Digital Sky Survey MPS 106170
2004 03 20.34056 13 05 10.31 +01 28 45.4 19.6   704 – Lincoln Laboratory ETS, New Mexico MPS 102120
2004 03 20.35118 13 05 09.75 +01 28 49.5 19.9   704 – Lincoln Laboratory ETS, New Mexico MPS 102120
2004 03 20.36198 13 05 09.25 +01 28 53.2 19.7   704 – Lincoln Laboratory ETS, New Mexico MPS 102120
2004 03 20.37261 13 05 08.81 +01 28 57.9 20.2   704 – Lincoln Laboratory ETS, New Mexico MPS 102120
2004 03 20.38355 13 05 08.29 +01 29 01.8 20.0   704 – Lincoln Laboratory ETS, New Mexico MPS 102120
2004 03 21.38759 13 04 20.31 +01 36 02.6 19.7 V 691 – Steward Observatory, Kitt Peak-Spacewatch MPS 102120
2004 03 21.41625 13 04 18.85 +01 36 14.8 19.8 V 691 – Steward Observatory, Kitt Peak-Spacewatch MPS 102120
2004 03 21.44470 13 04 17.42 +01 36 26.5 20.3 V 691 – Steward Observatory, Kitt Peak-Spacewatch MPS 102121
2004 03 22.35531 13 03 33.09 +01 42 49.7 19.3   704 – Lincoln Laboratory ETS, New Mexico MPS 106170
2004 03 22.36629 13 03 32.55 +01 42 55.8 19.7   704 – Lincoln Laboratory ETS, New Mexico MPS 106170
2004 03 22.37725 13 03 32.00 +01 42 59.3 19.8   704 – Lincoln Laboratory ETS, New Mexico MPS 106170
2004 03 22.39935 13 03 30.83 +01 43 08.8 20.2   704 – Lincoln Laboratory ETS, New Mexico MPS 106170
2004 03 28.36216 12 58 19.32 +02 25 12.9 19.5 V 691 – Steward Observatory, Kitt Peak-Spacewatch MPS 103045
2004 03 28.38943 12 58 17.76 +02 25 24.4 19.7 V 691 – Steward Observatory, Kitt Peak-Spacewatch MPS 103045
2004 03 28.46234 12 58 13.63 +02 25 55.0 19.8 V 691 – Steward Observatory, Kitt Peak-Spacewatch MPS 103045
2004 03 30.31469 12 56 31.47 +02 38 50.8 19.2 V 703 – Catalina Sky Survey MPS 103045
2004 03 30.32500 12 56 30.76 +02 38 56.1 19.2 V 703 – Catalina Sky Survey MPS 103045
2004 03 30.33525 12 56 30.28 +02 39 01.4 19.8 V 703 – Catalina Sky Survey MPS 103045
2004 03 30.34557 12 56 29.67 +02 39 03.3 19.1 V 703 – Catalina Sky Survey MPS 103045
2004 04 15.24321 12 41 22.66 +04 17 50.8 19.2   704 – Lincoln Laboratory ETS, New Mexico MPS 104237
2004 04 15.25429 12 41 22.06 +04 17 54.9 19.2   704 – Lincoln Laboratory ETS, New Mexico MPS 104237
2004 04 15.26543 12 41 21.40 +04 17 58.3 19.9   704 – Lincoln Laboratory ETS, New Mexico MPS 104237
2004 04 15.27651 12 41 20.77 +04 18 01.1 19.4   704 – Lincoln Laboratory ETS, New Mexico MPS 104237
2004 04 20.30292 12 36 54.07 +04 41 22.6 19.5   704 – Lincoln Laboratory ETS, New Mexico MPS 105025
2004 04 20.31405 12 36 53.54 +04 41 26.4 19.6   704 – Lincoln Laboratory ETS, New Mexico MPS 105025
2004 04 20.32521 12 36 52.95 +04 41 27.8 19.7   704 – Lincoln Laboratory ETS, New Mexico MPS 105025
2004 04 20.34735 12 36 51.76 +04 41 34.1 19.6   704 – Lincoln Laboratory ETS, New Mexico MPS 105025
2006 12 21.37163 08 44 21.26 +19 05 57.4 20.5 V G96 – Mt. Lemmon Survey MPS 191858
2006 12 21.37854 08 44 21.15 +19 05 58.5 21.2 V G96 – Mt. Lemmon Survey MPS 191858
2006 12 21.38544 08 44 20.86 +19 06 00.1 21.6 V G96 – Mt. Lemmon Survey MPS 191858
2006 12 21.39233 08 44 20.65 +19 06 02.7 22.3 V G96 – Mt. Lemmon Survey MPS 191858
2007 01 24.26831 08 15 22.42 +21 32 26.4 20.5 V G96 – Mt. Lemmon Survey MPS 196966
2007 01 24.27534 08 15 21.96 +21 32 28.4 20.6 V G96 – Mt. Lemmon Survey MPS 196966
2007 01 24.28238 08 15 21.49 +21 32 30.4 20.9 V G96 – Mt. Lemmon Survey MPS 196966
2007 01 24.28943 08 15 21.06 +21 32 32.5 20.8 V G96 – Mt. Lemmon Survey MPS 196966
2007 01 27.18658 08 12 21.15 +21 45 12.8 21.5 V 691 – Steward Observatory, Kitt Peak-Spacewatch MPS 197996
2007 01 27.20445 08 12 20.02 +21 45 18.1 21.0 V 691 – Steward Observatory, Kitt Peak-Spacewatch MPS 197996
2007 01 27.22257 08 12 18.88 +21 45 22.7 21.2 V 691 – Steward Observatory, Kitt Peak-Spacewatch MPS 197996
2007 02 06.21027 08 02 21.39 +22 25 04.7   691 – Steward Observatory, Kitt Peak-Spacewatch MPS 199369
2007 02 06.22691 08 02 20.44 +22 25 08.3   691 – Steward Observatory, Kitt Peak-Spacewatch MPS 199369
2007 02 06.24350 08 02 19.45 +22 25 12.0   691 – Steward Observatory, Kitt Peak-Spacewatch MPS 199369
2007 02 08.16293 08 00 32.26 +22 31 58.0   691 – Steward Observatory, Kitt Peak-Spacewatch MPS 199369
2007 02 08.17647 08 00 31.55 +22 32 00.6   691 – Steward Observatory, Kitt Peak-Spacewatch MPS 199369
2007 02 08.19000 08 00 30.78 +22 32 03.4   691 – Steward Observatory, Kitt Peak-Spacewatch MPS 199369
2008 04 26.35039 15 45 26.42 -11 49 03.0 18.6 V 703 – Catalina Sky Survey MPS 248825
2008 04 26.35800 15 45 26.24 -11 49 00.8 19.4 V 703 – Catalina Sky Survey MPS 248825
2008 04 26.36561 15 45 25.81 -11 49 00.1 19.0 V 703 – Catalina Sky Survey MPS 248825
2008 04 26.37325 15 45 25.56 -11 48 58.0 19.0 V 703 – Catalina Sky Survey MPS 248825
2008 04 28.26208 15 44 13.25 -11 43 47.1 19.1 V 691 – Steward Observatory, Kitt Peak-Spacewatch MPS 248825
2008 04 28.27972 15 44 12.49 -11 43 44.2 19.1 V 691 – Steward Observatory, Kitt Peak-Spacewatch MPS 248825
2008 04 28.29736 15 44 11.73 -11 43 41.2 20.1 V 691 – Steward Observatory, Kitt Peak-Spacewatch MPS 248825
2008 04 30.29854 15 42 48.37 -11 38 11.8 18.6   704 – Lincoln Laboratory ETS, New Mexico MPS 248825
